Fairfax, IA (52228)

3:38 PM CDT on July 29, 2016 (GMT -0500)
Rockhurst Dr SW - Stoney Point | | Change Station
Active Advisory: Special Statement

Elev 830 ft 41.97 °N, 91.76 °W | Updated 2 minutes ago

Overcast
Overcast
72.1 °F
Feels Like 72 °F
N
3.6
Wind Variable Wind from North
Gusts 4.9 mph

Today
High -- | Low -- °F
--% Chance of Precip.
Yesterday
High -- | Low -- °F
Precip. -- in
Pressure 29.95 in
Visibility 9.0 miles
Clouds Mostly Cloudy 1800 ft
Overcast 9000 ft
Heat Index 72 °F
Dew Point 66 °F
Humidity 80%
Rainfall 0.00 in
Snow Depth Not available.
5:58 AM 8:28 PM
Waning Crescent, 19% visible
SPECI KCID 291955Z 35004KT 9SM BKN018 OVC090 23/21 A2995 RMK AO2 T02330206
Pressure 29.95 in
Visibility 9.0 miles
Clouds Mostly Cloudy 1800 ft
Overcast 9000 ft
Heat Index 72 °F
Dew Point 66 °F
Humidity 80%
Rainfall 0.00 in
Snow Depth Not available.
5:58 AM 8:28 PM
Waning Crescent, 19% visible
SPECI KCID 291955Z 35004KT 9SM BKN018 OVC090 23/21 A2995 RMK AO2 T02330206

10-Day Weather Forecast

Almanac

Astronomy

Jul. 29, 2016 Rise Set
Actual Time
Civil Twilight
Nautical Twilight
Astronomical Twilight
Moon
Length of Visible Light
Length of Day
Tomorrow will be .
, % of the Moon is Illuminated

Today's Extremes

State Highs State Lows

Community

WunderPhotos

Upload Photos

1,928,407 photos uploaded!

WunderBlog® & News

Nearby

Air Quality

  Air Quality AQ Index Pollutant
Not available.

Snow Depth

Station Depth Elevation

Earthquake Activity

City Distance Mag. Time & Date
Minimum magnitude displayed is 2.5.

Coastal Water Temperatures

Place Temperature

Stations

Nearby Weather Stations

Station Location Temp. Windchill Dew Point Humidity Wind Precip. Elev Updated Type
                   

Watches & Warnings

Special Statement
Issued: 1:25 PM CDT Jul. 29, 2016 – National Weather Service

... Isolated... brief funnel clouds may be possible this afternoon...

Heating along a diffuse wind shift line is producing showers and possibly
isolated thunderstorms across the region. Low cloud bases and a weak
boundary may allow for a brief funnel clouds to develop which should
not reach the ground. Any funnel cloud that does form should not last
very long and is not expected to cause any damage since with they will
remain well above the ground


Nichols

125 PM CDT Fri Jul 29 2016

... Isolated... brief funnel clouds may be possible this afternoon...

Heating along a diffuse wind shift line is producing showers and possibly
isolated thunderstorms across the region. Low cloud bases and a weak
boundary may allow for a brief funnel clouds to develop which should
not reach the ground. Any funnel cloud that does form should not last
very long and is not expected to cause any damage since with they will
remain well above the ground


Nichols